Temperature
21 21 21 21 19 18 19 20 20 20 20 20 20 20 19 18 18 17 17 17 18 18 18 18 18 18 18 18 18 18 18 18 18 18 18 18 17 18 18 18 18 18 18 18 18 18 18 18 18
22 21 21 21 18 18 19 20 20 21 21 21 20 20 19 18 17 17 17 17 18 18 18 18 18 18 18 18 18 18 18 18 18 18 18 18 17 17 18 17 18 18 18 18 18 18 18 18 18
22 21 21 18 18 19 20 20 20 22 22 21 20 19 18 18 18 17 17 18 18 18 18 18 18 18 18 18 18 18 18 18 18 17 17 17 17 17 17 17 17 17 18 18 18 18 17 17 17
22 22 21 18 19 20 20 20 21 21 21 21 20 18 18 18 18 18 18 18 18 18 18 18 18 18 18 17 17 18 18 17 17 17 17 17 17 17 17 17 18 17 18 18 18 17 17 17 17
22 22 18 19 20 20 20 21 21 21 21 20 19 18 18 18 18 18 18 18 18 18 18 18 18 18 17 17 17 17 17 17 17 17 17 17 17 17 17 17 18 17 17 17 17 17 17 17 17
22 20 18 19 20 21 21 21 21 21 20 20 19 18 17 18 18 18 18 18 18 18 18 18 18 18 17 17 17 17 17 17 17 17 17 17 17 17 17 17 17 17 17 17 17 17 17 17 17
21 18 19 19 20 21 21 22 21 21 21 20 20 18 17 18 18 18 18 18 18 18 18 18 18 18 17 17 17 17 17 17 17 17 17 17 17 17 17 17 17 17 17 17 17 17 17 17 17
23 18 19 19 20 21 22 22 22 21 21 21 20 18 18 18 18 18 18 18 18 18 18 18 18 18 17 17 17 17 17 17 17 17 17 17 17 17 17 17 17 17 17 17 17 16 16 16 16
23 18 19 20 20 21 22 22 22 22 21 21 20 20 19 19 18 18 18 18 18 18 18 18 18 18 18 17 17 17 17 17 17 17 17 17 17 17 17 17 17 17 17 16 16 16 16 16 16
22 19 20 21 21 21 22 22 22 21 20 20 20 20 19 19 18 18 18 18 18 18 18 18 18 18 18 17 17 17 17 17 17 17 17 17 17 17 17 17 17 16 16 16 16 16 16 16 16
22 20 21 22 22 22 22 22 22 21 20 20 20 19 19 19 19 19 19 19 19 18 18 18 18 18 18 18 17 17 17 17 17 17 17 17 17 17 17 16 16 16 16 16 16 16 16 16 16
22 22 23 23 23 23 22 22 22 22 21 21 21 20 19 19 19 19 19 19 19 18 18 18 18 18 18 17 17 17 17 17 17 17 17 17 17 17 16 16 16 16 16 16 16 16 16 16 16
21 22 23 23 23 23 22 22 21 21 22 21 21 20 20 19 19 19 19 19 19 18 18 18 18 18 18 17 17 17 17 17 17 17 17 17 17 16 16 16 16 16 16 16 16 16 16 16 15
22 22 22 23 23 23 22 21 21 21 21 21 20 20 20 19 19 19 19 19 19 19 18 18 18 18 18 18 17 17 17 17 17 17 17 16 16 16 16 16 16 16 16 16 16 16 16 15 15
23 21 21 22 22 22 22 20 20 21 21 20 20 20 20 20 20 19 19 19 19 19 18 18 18 18 18 18 17 17 17 17 17 17 16 16 16 16 16 16 16 16 16 16 16 16 16 15 15
22 21 20 21 22 22 21 19 20 21 21 20 20 20 20 20 20 20 19 19 19 19 19 18 18 18 18 17 17 17 17 17 17 16 16 16 16 16 16 16 16 16 16 16 16 15 15 15 15
20 19 20 21 22 22 20 20 20 21 21 20 20 20 20 20 20 20 20 19 19 19 19 18 18 18 18 17 17 17 17 17 16 16 16 16 16 16 16 16 16 16 16 16 15 15 15 15 15
19 20 20 20 22 21 20 19 19 21 21 20 20 20 20 20 20 20 20 19 19 19 19 18 18 18 17 17 17 17 17 16 16 16 16 16 16 16 16 16 15 16 15 15 15 15 15 15 15
21 20 20 21 22 21 20 19 19 20 20 20 20 20 20 20 20 20 19 19 19 19 19 18 18 18 18 17 17 17 16 16 16 16 16 16 16 16 16 15 15 15 15 15 15 15 15 15 15
21 20 20 21 22 21 20 19 19 19 20 20 20 20 20 20 19 19 19 19 19 19 19 18 18 18 18 17 17 17 16 16 16 16 16 16 16 16 16 15 15 15 15 15 15 15 15 15 15
21 21 21 21 21 21 20 19 19 19 20 20 20 20 20 20 19 19 19 19 19 19 18 18 18 18 17 17 17 17 16 16 16 16 16 16 16 15 15 15 15 15 15 15 15 15 15 15 15
21 22 22 21 20 18 19 17 18 18 18 18 19 19 19 19 19 19 19 19 19 19 18 18 18 18 17 17 17 17 16 16 16 16 16 15 15 15 15 15 15 15 15 15 15 15 15 15 15
21 22 21 21 20 18 18 18 17 17 18 18 18 19 19 19 19 19 19 19 19 18 18 18 18 17 17 17 17 17 16 16 16 16 15 15 15 15 15 15 15 15 15 15 15 15 15 15 15
22 21 19 18 17 17 18 17 17 17 18 18 18 19 19 19 19 19 19 19 19 18 18 18 17 17 17 17 17 16 16 16 16 16 15 15 15 15 15 15 15 15 15 15 15 14 14 15 15
20 17 17 17 16 17 18 18 17 18 18 18 18 19 19 19 19 19 19 19 18 18 18 18 17 17 17 17 16 16 16 16 16 16 16 15 15 15 15 15 15 15 15 15 14 14 14 14 14
20 18 17 17 17 17 18 18 17 19 19 19 19 19 19 19 19 19 19 19 18 18 18 18 17 17 17 17 16 16 16 16 16 16 15 15 15 15 15 15 15 15 15 15 14 14 14 14 14
20 18 17 16 17 17 17 18 18 19 18 18 19 19 19 19 19 19 18 18 18 18 18 18 17 17 17 17 17 16 16 16 16 16 15 15 15 15 15 15 15 15 15 15 14 14 14 14 14
20 19 16 17 17 16 17 17 17 18 18 18 18 18 18 19 19 18 18 18 18 18 17 17 17 17 17 16 16 16 16 16 16 16 15 15 15 15 15 15 15 15 15 14 14 14 14 14 14
19 19 17 15 16 16 16 17 18 17 17 17 17 18 18 18 18 18 18 18 18 18 17 17 17 17 16 16 16 16 16 16 16 15 15 15 15 15 15 15 15 15 15 14 14 14 14 14 14
19 19 17 16 16 15 15 16 18 17 18 18 18 18 18 18 18 18 18 18 18 17 17 17 17 17 16 16 16 16 16 16 16 15 15 15 15 15 15 15 15 15 15 14 14 14 14 14 14
Wind_Speed
5 4 2 3 5 6 4 2 2 3 3 5 8 10 8 6 5 5 2 5 6 3 4 6 8 9 10 10 11 11 11 12 12 12 12 12 12 12 12 12 13 13 13 12 12 12 12 11 11
3 2 3 4 5 5 3 1 5 5 6 7 8 8 8 6 5 6 3 5 6 6 6 8 10 10 11 11 11 11 11 11 11 12 12 12 12 12 12 13 13 13 13 12 12 12 12 11 12
2 1 4 4 4 4 4 2 5 5 6 5 5 6 5 4 4 4 5 7 7 7 7 9 11 11 11 11 11 11 11 11 11 12 12 12 12 12 12 13 13 13 12 12 12 12 12 12 12
2 4 5 6 7 3 5 3 4 5 6 6 6 6 4 2 3 5 8 7 7 6 7 9 10 11 11 11 10 11 11 11 11 12 12 12 12 12 12 12 12 12 12 12 12 11 12 12 12
4 5 6 5 4 2 2 3 4 6 4 6 7 6 4 3 7 9 9 8 8 5 6 9 10 10 10 10 10 11 11 11 11 11 11 11 11 11 11 11 11 11 11 11 11 11 12 12 13
4 5 5 4 4 3 3 4 6 7 7 6 7 6 3 2 7 8 8 7 7 6 6 7 9 10 10 10 10 10 10 10 10 10 11 10 10 10 10 10 10 10 10 10 10 10 11 12 13
4 5 4 4 4 4 3 4 5 6 6 5 6 6 3 3 5 7 7 7 6 7 6 5 5 7 8 8 9 9 9 9 9 10 10 10 9 9 9 9 9 9 9 9 9 9 11 12 13
5 5 4 3 4 3 3 4 4 5 5 5 5 7 6 6 6 6 6 5 5 5 4 4 4 4 5 5 6 7 7 8 8 8 8 9 8 8 8 7 7 7 8 7 8 9 10 11 13
5 6 3 2 4 3 3 5 3 4 7 5 4 5 8 10 8 7 5 3 3 4 3 3 3 3 3 3 4 5 5 6 6 6 7 6 5 5 5 6 6 6 7 7 8 9 11 12 13
5 4 2 2 5 4 4 5 4 5 7 5 6 7 10 10 9 8 7 6 5 4 4 4 4 4 3 2 3 3 3 3 3 4 4 4 3 4 4 5 6 7 7 8 9 10 10 10 10
4 4 3 4 4 5 5 4 3 7 4 6 9 11 10 9 8 7 6 6 6 5 5 5 4 4 4 2 3 3 2 2 2 2 3 4 4 4 5 5 5 7 8 7 9 9 8 8 8
5 3 4 4 4 5 4 3 4 4 5 7 11 13 11 10 9 8 8 6 5 5 4 4 5 4 4 4 4 4 3 3 3 3 4 5 3 3 3 2 3 4 6 6 6 6 8 8 9
5 3 4 4 5 5 6 5 5 2 4 9 10 10 10 9 7 6 6 6 6 5 4 4 5 5 4 4 3 4 3 3 4 5 4 5 3 2 2 2 3 4 5 6 5 6 7 7 8
3 3 3 3 3 4 6 3 4 3 6 9 10 8 8 8 7 6 6 6 6 5 5 5 5 5 5 4 3 3 4 5 6 6 5 6 5 4 3 3 3 4 5 6 6 6 6 6 6
4 4 3 1 3 2 5 2 3 5 7 9 9 8 7 6 7 7 8 8 7 6 6 5 6 5 6 5 4 4 5 6 5 5 6 6 6 5 4 3 3 3 6 7 7 6 6 5 5
3 3 0 3 3 4 6 3 6 5 8 8 7 7 7 6 6 7 8 8 7 6 5 5 7 7 6 5 4 4 5 6 5 5 6 6 6 6 5 4 3 4 6 5 4 4 5 5 4
2 1 2 3 3 4 5 4 6 5 7 7 8 7 7 5 5 6 8 9 9 8 6 5 6 7 6 5 5 5 5 5 4 5 5 5 5 6 6 4 3 5 5 4 4 4 4 4 4
3 3 3 4 3 4 5 5 5 5 7 7 7 7 6 7 6 6 7 8 8 7 7 6 6 6 6 4 4 3 4 3 3 4 4 5 5 5 6 4 4 5 4 4 4 4 4 3 3
4 3 3 5 3 3 4 5 6 5 5 6 6 7 7 7 6 5 7 8 8 6 6 6 6 6 5 4 3 3 2 1 1 1 3 4 4 5 5 4 4 4 4 3 3 3 4 3 3
2 2 2 3 1 2 3 4 5 6 7 8 9 9 8 6 4 4 5 6 7 7 7 7 7 7 6 4 3 3 3 2 1 0 2 3 4 5 5 4 3 3 3 4 4 4 3 1 2
1 3 3 2 2 2 2 4 4 4 3 4 5 6 7 10 9 7 6 6 6 6 7 7 7 6 6 5 4 4 3 3 2 1 1 1 4 5 5 5 4 3 3 3 3 3 4 2 1
2 3 2 1 1 2 2 3 6 4 3 4 5 5 6 7 7 7 7 7 7 7 6 6 7 6 6 6 6 6 4 3 3 2 1 0 3 4 5 5 4 3 3 3 2 3 2 3 1
4 2 0 1 2 1 1 2 6 2 4 5 5 6 6 7 8 9 8 8 7 6 6 6 7 6 5 5 6 6 4 3 2 1 1 1 1 2 3 4 3 3 3 3 3 3 2 2 2
0 4 5 5 4 2 4 4 5 4 6 5 4 5 6 6 7 7 6 6 5 5 6 6 7 6 5 6 6 6 6 4 4 2 2 1 0 1 1 3 3 3 2 3 3 3 3 2 2
6 6 4 5 3 5 3 3 5 5 4 5 6 6 6 6 6 5 5 5 6 7 7 7 7 6 6 6 6 6 6 6 6 4 3 2 1 0 1 1 2 2 2 3 3 3 2 2 3
1 7 5 3 4 4 3 2 4 3 1 3 4 4 4 5 5 6 7 7 6 7 7 7 8 6 6 6 6 6 6 5 4 4 4 3 3 2 2 2 2 2 3 3 3 2 2 2 3
2 2 6 5 1 2 3 2 4 3 2 3 3 4 4 4 5 5 5 5 6 6 7 8 8 6 6 6 6 5 6 5 5 4 4 3 3 2 2 2 2 2 2 3 3 2 2 3 3
3 3 5 3 1 2 4 3 4 4 3 1 2 2 3 4 4 4 4 5 5 5 5 6 7 6 6 6 5 5 5 6 5 5 4 4 3 3 3 2 2 2 2 3 3 2 2 3 2
1 2 3 2 3 3 2 5 5 7 5 4 3 3 3 3 4 4 4 4 4 4 4 4 5 5 4 5 5 5 5 5 5 5 5 5 4 4 4 3 3 2 2 2 3 3 3 3 2
4 4 4 2 2 2 3 6 4 4 4 4 3 2 2 3 3 4 4 3 3 4 4 4 5 5 5 5 5 5 5 5 5 5 5 5 5 4 4 4 3 3 2 2 3 4 4 4 4
Wind_Direction
321 335 80 59 56 59 64 31 100 75 63 58 69 81 81 68 87 125 194 142 137 129 106 94 96 93 88 88 85 84 82 82 83 85 87 87 88 88 86 86 86 84 82 79 76 71 69 68 71
333 346 63 57 75 78 53 44 86 92 131 121 80 76 76 73 85 113 124 143 128 118 103 96 98 94 91 89 87 87 87 86 87 89 89 88 88 87 87 86 84 83 80 79 76 72 69 69 71
320 39 71 62 80 113 129 148 114 97 103 98 77 57 70 96 105 132 153 143 121 111 106 103 97 94 93 91 91 91 91 92 92 92 91 89 87 87 86 83 81 80 79 78 76 72 70 69 71
58 43 53 69 85 113 144 152 121 100 70 63 93 67 54 66 129 140 139 132 119 116 115 113 105 101 99 97 95 95 95 95 96 94 93 92 90 88 86 85 82 80 80 78 75 74 71 70 70
71 70 59 66 79 89 110 104 97 93 82 78 89 87 57 20 108 126 137 134 129 125 119 117 113 109 105 100 99 98 100 100 100 99 98 96 92 90 88 86 83 81 80 78 75 72 69 70 71
55 66 77 82 84 82 78 92 92 92 106 109 99 101 94 120 122 140 141 138 138 134 128 122 121 117 111 105 101 101 101 103 103 103 102 100 95 92 91 88 85 81 79 79 75 70 70 71 70
96 83 98 116 107 96 112 94 97 109 108 124 123 104 127 162 154 150 142 136 135 137 135 137 133 124 119 116 109 103 100 103 103 102 102 102 100 97 94 91 86 83 81 79 75 72 70 69 71
118 95 77 84 102 95 119 107 111 112 103 114 114 129 161 190 167 137 132 133 134 134 140 148 143 132 120 117 121 118 111 106 105 105 104 102 100 96 92 89 87 84 79 73 68 65 63 65 72
82 80 98 136 129 122 103 97 80 82 89 72 83 131 154 154 142 126 120 121 142 146 163 161 155 156 147 132 123 123 119 115 108 101 103 99 91 87 85 86 82 80 76 72 67 59 61 65 72
76 95 132 155 143 136 108 106 116 86 80 78 77 95 128 138 138 140 145 150 156 160 172 180 169 170 170 155 117 109 98 93 100 106 107 108 103 96 90 84 75 71 69 68 66 62 61 60 64
101 126 120 103 119 115 105 90 94 114 110 149 145 146 147 143 148 154 161 162 160 159 153 161 163 165 163 136 115 105 86 76 72 90 117 116 99 82 73 65 57 55 61 59 60 61 62 66 72
90 83 102 114 108 99 100 94 77 109 167 162 153 154 155 158 168 173 172 171 156 140 136 140 139 136 137 123 113 109 95 80 64 78 114 108 89 82 79 70 58 54 60 61 63 73 71 74 78
84 91 89 99 97 100 92 91 99 112 140 138 143 150 161 170 176 180 173 167 154 148 145 141 134 127 121 108 103 98 92 89 82 73 90 104 99 90 79 71 66 66 70 74 71 76 76 76 76
131 108 95 105 105 111 111 110 98 174 149 142 150 157 166 174 173 161 156 163 160 159 151 146 136 131 121 113 104 96 92 90 79 69 78 95 99 97 80 68 68 70 81 89 92 90 83 77 77
97 78 38 167 150 157 113 69 186 189 156 150 159 165 169 176 172 170 168 165 165 164 157 150 142 132 124 121 114 101 94 91 77 67 72 84 94 99 94 82 72 73 84 88 89 81 78 78 74
64 75 72 261 183 177 132 210 239 195 160 165 172 172 173 182 182 181 169 162 164 156 148 152 144 134 129 124 117 103 94 92 83 76 74 76 86 97 93 81 71 78 85 87 89 81 78 72 70
38 126 223 266 219 174 153 209 237 203 167 170 179 183 181 183 182 184 173 163 161 159 148 134 131 135 133 128 117 105 96 87 83 77 73 70 81 99 102 90 81 84 80 76 94 82 90 89 78
203 202 225 236 242 173 173 211 225 201 169 179 185 186 185 185 196 185 171 163 157 156 145 137 129 127 128 115 101 88 81 68 67 67 69 76 85 97 100 93 93 93 84 72 82 88 80 93 98
186 190 230 241 229 164 183 210 223 211 182 183 187 188 189 194 198 177 164 156 150 149 141 143 138 138 133 123 119 116 115 99 62 59 71 78 82 95 102 100 95 95 98 99 99 99 80 72 96
189 174 240 280 230 165 204 241 236 213 203 195 189 190 187 177 172 170 154 155 158 162 158 152 153 152 152 147 149 148 142 142 155 40 58 75 92 98 111 109 108 101 100 88 88 102 100 85 88
197 174 200 243 330 19 77 322 282 258 219 200 188 183 180 176 179 180 170 168 158 162 168 165 164 158 155 142 118 97 77 59 45 34 20 37 99 106 113 114 113 110 109 112 105 113 122 127 41
243 249 213 198 79 271 152 268 279 250 235 219 211 189 183 181 178 178 173 171 175 176 169 162 163 161 153 141 138 137 141 160 200 196 193 112 101 111 122 120 114 118 117 118 120 120 126 130 119
230 259 275 223 165 307 266 186 283 269 238 239 220 201 192 183 179 181 179 177 175 168 161 160 156 157 156 151 150 145 145 166 167 131 119 99 70 98 117 128 123 118 120 127 120 111 113 121 136
40 34 22 45 73 304 234 177 270 240 223 217 210 197 189 183 177 179 174 164 162 157 153 154 153 159 163 160 155 154 154 152 141 139 147 152 15 358 104 121 126 129 133 135 131 126 119 118 115
66 74 26 3 7 260 248 161 245 256 220 184 184 190 183 175 167 161 160 167 169 164 160 157 158 168 174 166 167 167 164 164 167 168 170 161 161 230 214 143 145 150 152 145 137 130 132 130 124
140 132 153 202 235 283 337 199 255 271 194 138 147 154 153 157 164 168 174 176 177 175 169 162 166 173 177 175 180 175 169 167 174 178 170 171 181 201 198 159 155 162 158 150 139 139 156 137 136
139 181 178 155 252 289 295 289 314 351 31 95 109 118 144 164 169 173 174 175 177 177 178 170 168 172 180 183 178 173 172 169 173 176 170 174 187 193 176 166 163 161 161 154 147 146 155 142 148
153 154 88 110 167 270 296 262 233 236 235 173 134 160 180 167 169 171 172 174 178 178 173 169 171 180 185 182 179 180 181 174 172 165 166 177 186 175 160 163 163 156 166 163 154 162 160 143 155
19 68 97 120 160 165 256 274 236 205 197 187 179 167 179 173 177 179 182 185 174 160 159 169 178 182 184 186 181 175 179 178 174 173 181 182 181 172 166 169 166 172 174 170 162 180 162 155 162
163 162 137 147 264 178 187 265 289 187 194 178 184 180 169 178 185 178 176 165 156 168 176 181 187 186 192 189 182 183 179 177 181 187 189 182 179 180 176 172 169 177 175 167 172 181 175 168 172
Height
1517 1516 1515 1515 1518 1529 1534 1529 1525 1524 1524 1525 1524 1525 1528 1532 1536 1543 1539 1537 1537 1535 1534 1533 1533 1533 1532 1532 1531 1531 1530 1530 1529 1529 1529 1529 1528 1528 1528 1528 1527 1527 1527 1526 1526 1526 1525 1525 1525
1517 1516 1516 1516 1526 1540 1537 1528 1526 1524 1525 1525 1526 1528 1530 1534 1536 1537 1537 1538 1538 1536 1535 1534 1534 1534 1533 1533 1532 1532 1532 1531 1531 1531 1531 1530 1530 1530 1530 1529 1529 1528 1528 1528 1528 1527 1527 1527 1526
1517 1516 1518 1520 1530 1538 1536 1528 1525 1524 1525 1524 1528 1530 1533 1536 1537 1538 1539 1539 1539 1538 1537 1536 1536 1535 1535 1534 1534 1533 1533 1533 1532 1532 1532 1532 1532 1531 1531 1531 1530 1530 1530 1530 1529 1529 1528 1528 1528
1517 1518 1520 1527 1532 1530 1528 1526 1524 1525 1526 1527 1529 1533 1536 1538 1538 1539 1539 1540 1540 1539 1539 1538 1537 1537 1537 1536 1535 1535 1534 1534 1534 1534 1534 1534 1534 1533 1533 1533 1532 1532 1531 1531 1531 1530 1530 1530 1529
1517 1519 1526 1534 1532 1528 1526 1525 1524 1526 1528 1530 1530 1535 1538 1539 1539 1540 1540 1541 1541 1541 1540 1540 1539 1539 1538 1538 1537 1536 1536 1536 1536 1536 1536 1536 1535 1535 1535 1535 1534 1534 1533 1533 1533 1532 1532 1531 1531
1519 1521 1535 1540 1534 1529 1527 1526 1527 1528 1530 1532 1533 1536 1540 1541 1540 1541 1542 1542 1543 1542 1542 1542 1541 1541 1540 1540 1539 1539 1538 1538 1538 1538 1538 1537 1537 1537 1536 1536 1536 1535 1535 1535 1534 1534 1534 1534 1533
1520 1526 1535 1536 1535 1532 1529 1528 1528 1529 1531 1532 1533 1537 1541 1542 1542 1542 1543 1543 1544 1544 1544 1543 1543 1543 1542 1542 1541 1541 1540 1540 1540 1540 1539 1539 1539 1539 1538 1538 1538 1537 1537 1537 1536 1536 1536 1535 1535
1520 1526 1533 1535 1536 1533 1529 1529 1530 1530 1532 1533 1534 1536 1540 1542 1543 1543 1544 1545 1545 1545 1545 1545 1544 1544 1544 1543 1543 1543 1542 1542 1542 1541 1541 1541 1541 1540 1540 1540 1540 1539 1539 1539 1538 1538 1538 1537 1537
1521 1530 1537 1534 1534 1532 1529 1529 1531 1532 1532 1533 1534 1535 1538 1541 1543 1544 1545 1545 1546 1546 1546 1546 1545 1545 1545 1545 1544 1544 1544 1544 1544 1543 1543 1543 1543 1542 1542 1542 1541 1541 1541 1541 1540 1540 1539 1539 1538
1522 1533 1532 1528 1528 1529 1529 1530 1531 1533 1534 1535 1536 1538 1539 1541 1543 1544 1545 1545 1546 1546 1546 1546 1546 1546 1546 1546 1546 1546 1545 1545 1545 1545 1545 1544 1544 1544 1544 1543 1543 1543 1543 1542 1542 1542 1541 1540 1540
1524 1529 1527 1527 1527 1528 1529 1530 1531 1533 1536 1536 1536 1538 1540 1541 1543 1544 1545 1545 1546 1547 1547 1546 1547 1547 1547 1547 1547 1546 1546 1546 1546 1546 1546 1546 1545 1545 1545 1545 1545 1544 1544 1544 1543 1543 1542 1542 1541
1525 1526 1526 1528 1528 1529 1530 1531 1533 1533 1535 1535 1536 1538 1540 1541 1543 1544 1544 1545 1546 1547 1547 1547 1547 1548 1547 1547 1548 1547 1547 1547 1547 1547 1547 1546 1546 1546 1546 1546 1546 1546 1545 1545 1545 1544 1544 1543 1543
1527 1528 1528 1528 1529 1530 1530 1532 1533 1535 1535 1536 1538 1539 1540 1541 1543 1544 1545 1546 1546 1547 1547 1547 1548 1548 1548 1548 1548 1548 1548 1548 1548 1547 1547 1547 1547 1547 1547 1547 1547 1547 1547 1547 1546 1546 1545 1545 1544
1528 1528 1529 1529 1530 1531 1532 1534 1534 1536 1536 1537 1538 1539 1540 1541 1542 1544 1545 1545 1546 1547 1547 1548 1548 1548 1549 1549 1549 1549 1549 1549 1548 1548 1548 1548 1548 1548 1548 1548 1548 1548 1548 1548 1547 1547 1547 1546 1546
1528 1530 1531 1530 1530 1531 1533 1537 1535 1535 1535 1536 1538 1539 1540 1541 1542 1543 1544 1544 1545 1546 1547 1548 1548 1549 1549 1549 1549 1549 1549 1549 1549 1549 1549 1548 1548 1549 1548 1548 1549 1549 1548 1548 1548 1548 1548 1548 1547
1530 1535 1540 1532 1530 1530 1536 1543 1534 1534 1535 1536 1537 1538 1539 1540 1541 1542 1543 1544 1545 1546 1547 1547 1548 1548 1549 1549 1549 1549 1549 1549 1549 1549 1549 1549 1549 1549 1549 1549 1549 1549 1549 1549 1549 1549 1549 1549 1549
1537 1543 1542 1535 1529 1529 1534 1539 1533 1533 1533 1535 1536 1537 1538 1539 1540 1541 1542 1543 1544 1545 1546 1547 1547 1548 1548 1549 1549 1549 1549 1549 1549 1549 1549 1549 1549 1549 1549 1549 1549 1550 1550 1550 1550 1550 1550 1550 1550
1543 1542 1540 1538 1530 1530 1534 1535 1532 1531 1532 1533 1534 1535 1536 1537 1539 1540 1541 1542 1543 1545 1545 1546 1547 1547 1548 1548 1549 1549 1549 1549 1549 1549 1549 1549 1549 1549 1549 1550 1550 1550 1550 1550 1550 1550 1550 1551 1551
1533 1536 1539 1534 1527 1530 1534 1534 1532 1531 1531 1532 1533 1534 1534 1535 1537 1539 1540 1541 1543 1544 1545 1545 1546 1546 1547 1548 1548 1548 1549 1549 1549 1549 1549 1549 1549 1549 1550 1550 1550 1550 1550 1550 1550 1551 1551 1551 1551
1530 1536 1537 1532 1527 1530 1534 1534 1530 1529 1529 1529 1529 1531 1532 1534 1536 1537 1538 1540 1541 1542 1543 1544 1545 1546 1546 1547 1548 1548 1548 1549 1549 1549 1549 1549 1549 1549 1549 1549 1550 1550 1550 1550 1550 1551 1551 1551 1552
1531 1534 1534 1534 1529 1529 1534 1538 1533 1529 1528 1528 1528 1529 1530 1531 1533 1535 1537 1538 1540 1541 1542 1543 1544 1545 1545 1546 1547 1547 1548 1548 1548 1548 1549 1549 1549 1549 1549 1549 1549 1550 1550 1550 1550 1551 1551 1552 1552
1534 1526 1527 1530 1537 1543 1538 1553 1537 1530 1528 1527 1527 1527 1528 1530 1531 1533 1534 1536 1537 1539 1540 1542 1543 1544 1545 1545 1546 1546 1547 1547 1548 1548 1548 1549 1549 1549 1549 1549 1549 1549 1550 1550 1550 1551 1551 1552 1552
1527 1522 1525 1528 1535 1543 1541 1549 1543 1532 1531 1527 1525 1525 1526 1527 1529 1530 1532 1534 1536 1537 1539 1540 1541 1543 1544 1544 1545 1545 1546 1546 1547 1547 1548 1548 1548 1549 1549 1549 1549 1549 1549 1549 1550 1550 1551 1551 1552
1522 1525 1529 1535 1542 1553 1543 1548 1546 1534 1527 1523 1522 1522 1523 1525 1527 1529 1531 1533 1534 1536 1537 1539 1540 1541 1542 1543 1544 1545 1545 1546 1546 1546 1547 1547 1548 1548 1548 1548 1548 1548 1548 1549 1549 1550 1550 1551 1551
1526 1540 1555 1556 1561 1556 1539 1542 1540 1525 1520 1519 1520 1520 1522 1523 1525 1527 1529 1531 1532 1534 1535 1537 1538 1539 1541 1542 1543 1544 1544 1545 1545 1546 1546 1546 1547 1547 1547 1547 1548 1548 1548 1548 1549 1549 1549 1550 1550
1529 1538 1557 1564 1564 1555 1540 1543 1534 1521 1519 1518 1519 1520 1521 1523 1524 1526 1527 1529 1530 1532 1533 1535 1536 1538 1539 1540 1541 1543 1543 1544 1544 1545 1545 1546 1546 1546 1546 1547 1547 1547 1547 1548 1548 1549 1549 1549 1550
1530 1536 1537 1549 1550 1555 1548 1539 1529 1522 1521 1520 1520 1520 1521 1522 1523 1525 1526 1527 1528 1530 1531 1533 1535 1536 1538 1539 1540 1541 1542 1543 1543 1544 1544 1545 1545 1545 1545 1546 1546 1546 1547 1547 1547 1548 1548 1548 1549
1525 1530 1541 1549 1557 1561 1551 1544 1540 1528 1525 1522 1521 1521 1521 1522 1523 1524 1525 1526 1527 1529 1530 1532 1533 1535 1536 1537 1538 1539 1540 1541 1542 1542 1543 1543 1543 1544 1544 1544 1545 1545 1545 1546 1546 1547 1547 1547 1548
1529 1532 1538 1547 1550 1558 1560 1549 1524 1523 1522 1522 1521 1521 1522 1522 1522 1523 1524 1525 1526 1528 1529 1530 1531 1533 1534 1535 1536 1537 1538 1539 1540 1541 1541 1542 1542 1542 1542 1543 1543 1543 1544 1544 1545 1545 1546 1546 1546
1525 1529 1537 1549 1550 1551 1556 1548 1519 1518 1519 1519 1520 1520 1521 1522 1522 1522 1523 1524 1525 1526 1527 1528 1529 1531 1532 1533 1534 1535 1536 1537 1538 1538 1539 1540 1540 1541 1541 1541 1541 1542 1542 1543 1543 1543 1544 1544 1545